Weather History for Erie, PA

Change the Weather History Date:

Friday, October 26, 2012

  Actual Average Record
Temperature  
Mean Temperature 59 °F 50 °F  
Max Temperature 69 °F 58 °F 79 °F (1991)
Min Temperature 49 °F 42 °F 26 °F (1887)
Degree Days  
Heating Degree Days 6 15  
Month to date heating degree days 250 300  
Since 1 July heating degree days 374 424  
Cooling Degree Days 0 0  
Month to date cooling degree days 12 7  
Year to date cooling degree days 899 636  
Growing Degree Days 8 (Base 50)    
Moisture  
Dew Point 49 °F    
Average Humidity 74    
Maximum Humidity 93    
Minimum Humidity 55    
Precipitation  
Precipitation 0.01 in 0.12 in 1.12 in (1932)
Month to date precipitation 4.32 3.43  
Year to date precipitation 29.35 33.87  
Snow  
Snow 0.00 in 0.00 in - ()
Month to date snowfall 0.0 0.1  
Since 1 July snowfall 0.0 0.1  
Since 1 September snowfall 0.0 0.1  
Snow Depth 0.00 in    
Sea Level Pressure  
Sea Level Pressure 30.10 in    
Wind  
Wind Speed 12 mph (NNE)    
Max Wind Speed 18 mph    
Max Gust Speed 26 mph    
Visibility 8 miles    
Events Rain    
T = Trace of Precipitation, MM = Missing Value Source: NWS Daily Summary

Daily Weather History Graph

Daily Weather History Graph

Search for Another Location

Airport:

Trip Planner

Search our weather history database for the weather conditions in past years. The results will help you decide how hot, cold, wet, or windy it might be!

Date:

Astronomy

Oct. 26, 2012 Rise Set
Actual Time 7:46 AM EDT 6:21 PM EDT
Civil Twilight 7:18 AM EDT 6:50 PM EDT
Nautical Twilight 6:45 AM EDT 7:23 PM EDT
Astronomical Twilight 6:12 AM EDT 7:55 PM EDT
Moon 4:39 PM EDT (10/26) 4:38 AM EDT (10/26)
Length of Visible Light 11h 32m
Length of Day
10h 35m
Waxing Gibbous, 91% of the Moon is Illuminated
Oct 26
Waxing Gibbous
Oct 29
Full
Nov 6
Last Quarter
Nov 13
New
Nov 20
First Quarter

Hourly Weather History & Observations

Time (EDT) Temp. Dew Point Humidity Pressure Visibility Wind Dir Wind Speed Gust Speed Precip Events Conditions
12:51 AM 68.0 °F 52.0 °F 56% 29.96 in 10.0 mi South 13.8 mph 21.9 mph N/A   Clear
1:51 AM 66.9 °F 53.1 °F 61% 29.94 in 10.0 mi South 16.1 mph 24.2 mph N/A   Clear
2:51 AM 66.0 °F 53.1 °F 63% 29.96 in 10.0 mi South 13.8 mph 25.3 mph N/A   Clear
3:51 AM 64.9 °F 52.0 °F 63% 29.97 in 10.0 mi South 11.5 mph - N/A   Clear
4:51 AM 64.0 °F 52.0 °F 65% 29.99 in 10.0 mi SSE 12.7 mph - N/A   Clear
5:51 AM 63.0 °F 52.0 °F 67% 29.99 in 10.0 mi SSE 15.0 mph - N/A   Clear
6:51 AM 63.0 °F 52.0 °F 67% 30.01 in 10.0 mi South 15.0 mph 21.9 mph N/A   Clear
7:51 AM 62.1 °F 52.0 °F 70% 30.01 in 10.0 mi SSE 15.0 mph - N/A   Clear
8:51 AM 63.0 °F 53.1 °F 70% 30.04 in 10.0 mi South 12.7 mph 20.7 mph N/A   Partly Cloudy
9:51 AM 64.9 °F 53.1 °F 65% 30.04 in 10.0 mi South 13.8 mph - N/A   Clear
10:51 AM 68.0 °F 52.0 °F 56% 30.06 in 10.0 mi SW 9.2 mph - N/A   Clear
11:51 AM 62.1 °F 55.0 °F 78% 30.08 in 10.0 mi West 9.2 mph 20.7 mph N/A   Partly Cloudy
12:34 PM 59.0 °F 53.6 °F 82% 30.10 in 10.0 mi WNW 13.8 mph 20.7 mph N/A   Mostly Cloudy
12:46 PM 57.2 °F 51.8 °F 82% 30.11 in 10.0 mi West 12.7 mph 20.7 mph N/A   Overcast
12:51 PM 57.0 °F 51.1 °F 81% 30.11 in 10.0 mi West 11.5 mph 20.7 mph N/A   Overcast
1:51 PM 55.9 °F 51.1 °F 84% 30.12 in 10.0 mi WNW 8.1 mph - N/A   Overcast
2:51 PM 55.9 °F 48.9 °F 77% 30.11 in 10.0 mi NNW 8.1 mph - N/A   Overcast
3:46 PM 53.6 °F 46.4 °F 77% 30.12 in 10.0 mi North 6.9 mph - N/A   Overcast
3:51 PM 53.6 °F 46.4 °F 77% 30.12 in 10.0 mi North 6.9 mph - N/A   Overcast
4:51 PM 54.0 °F 46.9 °F 77% 30.13 in 10.0 mi North 9.2 mph - N/A   Overcast
5:36 PM 51.8 °F 46.4 °F 82% 30.14 in 7.0 mi North 12.7 mph 19.6 mph N/A   Overcast
5:51 PM 51.1 °F 46.9 °F 86% 30.14 in 5.0 mi North 10.4 mph - N/A   Overcast
6:02 PM 50.0 °F 46.4 °F 87% 30.14 in 2.0 mi North 11.5 mph 20.7 mph 0.00 in Rain Light Rain
6:06 PM 50.0 °F 48.2 °F 94% 30.15 in 1.8 mi North 11.5 mph 20.7 mph 0.00 in Rain Light Rain
6:12 PM 50.0 °F 48.2 °F 94% 30.15 in 2.0 mi North 13.8 mph 19.6 mph 0.00 in Rain Light Rain
6:20 PM 50.0 °F 48.2 °F 94% 30.15 in 1.8 mi NNE 13.8 mph 19.6 mph 0.01 in   Overcast
6:51 PM 48.9 °F 46.9 °F 93% 30.17 in 2.5 mi North 16.1 mph 21.9 mph 0.01 in Rain Light Rain
6:59 PM 48.2 °F 46.4 °F 93% 30.16 in 4.0 mi North 15.0 mph 21.9 mph 0.00 in Rain Light Rain
7:03 PM 48.2 °F 46.4 °F 93% 30.17 in 4.0 mi North 11.5 mph 21.9 mph 0.00 in Rain Light Rain
7:14 PM 48.2 °F 46.4 °F 93% 30.17 in 4.0 mi North 13.8 mph 21.9 mph 0.00 in Rain Light Rain
7:37 PM 50.0 °F 46.4 °F 87% 30.18 in 10.0 mi NNE 15.0 mph 21.9 mph 0.00 in   Overcast
7:51 PM 50.0 °F 46.0 °F 86% 30.18 in 10.0 mi NNE 11.5 mph - 0.00 in   Overcast
8:51 PM 48.9 °F 46.9 °F 93% 30.17 in 4.0 mi NNE 12.7 mph - N/A   Overcast
9:47 PM 50.0 °F 46.4 °F 87% 30.16 in 10.0 mi NNE 11.5 mph - N/A   Overcast
9:51 PM 50.0 °F 46.0 °F 86% 30.17 in 10.0 mi NNE 13.8 mph - N/A   Overcast
10:18 PM 48.2 °F 46.4 °F 93% 30.15 in 4.0 mi NE 13.8 mph 23.0 mph 0.00 in Rain Light Rain
10:38 PM 50.0 °F 44.6 °F 82% 30.17 in 10.0 mi NE 11.5 mph 21.9 mph 0.00 in   Overcast
10:51 PM 50.0 °F 45.0 °F 83% 30.17 in 10.0 mi NE 15.0 mph 21.9 mph 0.00 in   Overcast
11:12 PM 50.0 °F 44.6 °F 82% 30.17 in 10.0 mi NNE 16.1 mph 21.9 mph N/A   Overcast
11:51 PM 50.0 °F 45.0 °F 83% 30.15 in 10.0 mi NNE 13.8 mph 23.0 mph N/A   Overcast